Location: Boiro
(42.6475°N, 8.8834°W)
Time: 17:28:54
(UTC+01:00)

Explorer 7 - Pass Details

Date: 03 December 2021
Orbit: 483 x 674 km, 50.3° (Epoch: 20 January)

Event Time Altitude Azimuth Distance (km) Brightness Sun altitude
Rises 14:29:33 0° 290° (WNW) 2,578 10.2 23.5°
Reaches altitude 10° 14:32:14 10° 271° (W) 1,674 9.6 23.4°
Maximum altitude 14:34:52 18° 226° (SW) 1,232 9.9 23.2°
Drops below altitude 10° 14:37:30 10° 181° (S) 1,653 10.9 23.1°
Sets 14:40:07 0° 162° (SSE) 2,532 11.0 22.9°
